Résultats du Marathon de Toulouse Métropole

Liste de résultats 2018

Les temps des relais 1 et 2 seront intégrés dans les prochains jours.


Place Dossard Nom Catégorie Temps réel Photos Diplôme Détails
801 14916 EPIDE mixte MIX 04:15:28
802 14565 Pleins Poumons MIX 04:15:32
803 14567 Fouffle Fort ! MIX 04:15:34
804 14566 Mais Fouffle ! MIX 04:15:34
805 14344 TUTTI FRUTTI DE ROSA PARKS MIX 04:15:36
806 14385 les LEGS MIX 04:15:43
807 14454 Les 4 poulaiiiits MIX 04:16:10
808 14256 cool cool team FEM 04:16:26
809 14465 COEUR DE SPORT 4 MIX 04:16:28
810 14462 COEUR DE SPORT 2 MIX 04:16:29
811 14445 COEUR DE SPORT MIX 04:16:31
812 14463 COEUR DE SPORT 3 FEM 04:16:32
813 14402 France Active #2 MIX 04:16:33
814 14401 France Active #1 MIX 04:16:33
815 14009 LES 4 AS MIX 04:16:41
816 14061 L'équipe de choc MIX 04:16:46
817 14317 Mervifolles un jour... FEM 04:17:29
818 14318 Mervifolles toujours! FEM 04:17:29
819 14740 Team Petit coeur de beurre 3 FEM 04:17:31
820 14542 Mistral Gagnant MIX 04:17:31
821 14485 IDE 2 MIX 04:17:41
822 14292 on court pour l'Oncopole FEM 04:17:42
823 14556 Les As de la Jungle 1 HOM 04:17:43
824 14407 Les Quatre-Quarts MIX 04:17:55
825 14733 La Buleria flamenca MIX 04:17:59
826 14383 LES MOTARDS CORSE MIX 04:18:06
827 14417 Casper la menace fantôme MIX 04:18:13
828 14788 #DreamTeam MIX 04:18:17
829 14912 Les ACT de l'Ucrm MIX 04:18:21
830 14914 Ucrm 92 MIX 04:18:22
831 14378 Les Mécanoïdes MIX 04:18:26
832 14860 LP TEAM 1 MIX 04:19:20
833 14147 CL'HEMATITES FEM 04:19:23
834 14901 ENEDIS 18 MIX 04:19:29
835 14387 LYMO 2 MIX 04:19:31
836 14650 Les driveuses FEM 04:20:02
837 14142 FUNKY CHICKEN RUN FEM 04:20:04
838 14260 Roses des vents MIX 04:20:04
839 14439 BL.Runners MIX 04:20:25
840 14594 Michouettes MIX 04:20:30
841 14756 Team Petit coeur de beurre 6 MIX 04:20:48
842 14622 Vive les Gaufres MIX 04:20:59
843 14861 ô toulouse MIX 04:21:06
844 14038 Les Saintois MIX 04:21:18
845 14864 RéférendEAUm MIX 04:21:26
846 14537 semelles de vent MIX 04:21:59
847 14616 GFI BTEAM MIX 04:22:43
848 14179 Ge Healthcare 01 MIX 04:23:16
849 14829 TEAM LOLA MIX 04:23:49
850 14364 COMPAGNIE FIDUCIAIRE MIX 04:24:15
851 14489 Walk&SATUC MIX 04:24:23
852 14633 Les Limaces R.O.S.E. FEM 04:24:34
853 14268 Cours Rosa, cours ! MIX 04:25:23
854 14034 Kill Arena FEM 04:25:43
855 14580 Escarpignadas FEM 04:26:08
856 14029 Les déglingos MIX 04:26:32
857 14805 Les bistouris véloces FEM 04:27:11
858 14547 association polyposes familialles MIX 04:27:32
859 14262 Les 4 Non Blondes FEM 04:27:34
860 14628 Dream team de HE FEM 04:27:40
861 14096 les princesses du running FEM 04:27:46
862 14460 Les Carbonnaises en Folie MIX 04:28:01
863 14533 ASPF MIX 04:28:04
864 14592 PACOEMJU MIX 04:28:19
865 14646 PRENATHOVA MIX 04:28:19
866 14012 COLAS SO 1 HOM 04:28:21
867 14018 COLAS SO 7 MIX 04:28:28
868 14557 Les As de la Jungle 2 FEM 04:29:06
869 14137 je sapelprout MIX 04:29:53
870 14428 YES ! MIX 04:30:30
871 14464 ToulÉco MIX 04:30:41
872 14816 Les CAFouilles FEM 04:30:43
873 14611 Ordre des Avocats FEM 04:31:05
874 14712 ADRAR en FORM' MIX 04:32:18
875 14682 The Bitch Boys MIX 04:32:19
876 14908 GA'RUNNERS - COUREURS D'ELITES MIX 04:33:50
877 14187 Les 4x4 MIX 04:33:55
878 14257 quatuor MIX 04:36:19
879 14296 Les tire-au-flanc MIX 04:36:37
880 14450 ForestGirls FEM 04:37:13
881 14240 LOS LOCOS MIX 04:37:40
882 14479 Les 4 Gazelles FEM 04:37:43
883 14294 AFA MIX 04:38:01
884 14904 Elles Bougent FEM 04:38:04
885 14787 LP TEAM 2 MIX 04:41:56
886 14774 CASTORAMA BLAGNAC 1 MIX 04:44:15
887 14549 Digi runners MIX 04:45:13
888 14942 The Avengers MIX 04:45:29
889 14910 Vivement le brunch FEM 04:45:59
890 14911 SEEK the finish MIX 04:46:15
891 14010 Club canin du frontonnais "Girls" FEM 04:46:47
892 14422 Run SINEO Run MIX 04:47:13
893 14120 MIGRATHON MIX 04:47:34
894 14308 Les pas pressés MIX 04:47:50
895 14515 ACG MIX 04:52:58
896 14043 Les Eclair'euses FEM 05:01:18
897 14436 TEAM SKIPPY FEM 05:04:07
898 14006 SUDOTRANS 1 MIX 05:04:07
899 14283 FLUIDRA 2 HOM 05:04:08
900 14535 PFDC MURET2 MIX 05:04:08
S'inscrire Organisé par

Nous contacter

Newsletter

Météo